Location: ????????
(41.2031°N, 22.5756°E)
Time: 15:43:28
(UTC+00:00)

Lacrosse 4 Rocket - Pass Details

Date: 01 December 2020
Orbit: 537 x 620 km, 68.0° (Epoch: 20 January)

Event Time Altitude Azimuth Distance (km) Brightness Sun altitude
Rises 16:06:22 0° 159° (SSE) 2,676 4.8 -12.0°
Reaches altitude 10° 16:09:40 10° 129° (SE) 1,798 3.6 -12.6°
Enters shadow 16:10:48 12° 113° (ESE) 1,669 3.3 -12.8°
